862  
ASUS41 KRLX 021510  
RWRRLX  
REGIONAL WEATHER ROUNDUP  
NATIONAL WEATHER SERVICE CHARLESTON WV  
1100 AM EDT THU JUL 02 2020  
 
NOTE: "FAIR" INDICATES FEW OR NO CLOUDS BELOW 12,000 FEET WITH NO  
SIGNIFICANT WEATHER AND/OR S TO VISIBILITY
.  
 
WVZ003-021600-  
NORTHERN PANHANDLE OF WEST VIRGINIA  
 
CITY SKY/WX TMP DP RH WIND PRES REMARKS
 
WHEELING SUNNY 79 64 60 NW5 30.03S  

 
 
WVZ009-021600-  
NORTHWEST WEST VIRGINIA  
 
CITY SKY/WX TMP DP RH WIND PRES REMARKS
 
PARKERSBURG SUNNY 82 64 54 NE3 30.03R  

 
 
WVZ006-021600-  
WESTERN WEST VIRGINIA  
 
CITY SKY/WX TMP DP RH WIND PRES REMARKS
 
HUNTINGTON SUNNY 81 66 60 E8 30.02R  

 
 
WVZ015-021600-  
WEST CENTRAL WEST VIRGINIA  
 
CITY SKY/WX TMP DP RH WIND PRES REMARKS
 
CHARLESTON MOSUNNY 80 63 55 NE7 30.02R  

 
 
WVZ022-031-021600-  
NORTH CENTRAL WEST VIRGINIA  
 
CITY SKY/WX TMP DP RH WIND PRES REMARKS
 
MORGANTOWN SUNNY 80 62 54 VRB3 30.02S  
CLARKSBURG SUNNY 81 63 54 N6 30.01F  
BUCKHANNON MOSUNNY 88 70 55 VRB6 30.03S  

 
 
WVZ025-035-042-045-021600-  
SOUTHERN WEST VIRGINIA  
 
CITY SKY/WX TMP DP RH WIND PRES REMARKS
 
BECKLEY SUNNY 76 61 59 N8 30.08R  
LOGAN FAIR 79 64 61 N6 30.04R  
PINEVILLE SUNNY 79 67 65 MISG 30.09R  
BLUEFIELD MOSUNNY 71 61 70 CALM 30.09R  
LEWISBURG SUNNY 73 64 73 CALM 30.06R  

 
 
WVZ047-021600-  
NORTHERN MOUNTAINS OF WEST VIRGINIA  
 
CITY SKY/WX TMP DP RH WIND PRES REMARKS
 
ELKINS SUNNY 76 62 62 N8 30.04F  

 
 
WVZ052-021600-  
EASTERN PANHANDLE OF WEST VIRGINIA  
 
CITY SKY/WX TMP DP RH WIND PRES REMARKS
 
MARTINSBURG SUNNY 81 64 56 N8 29.94S  
PETERSBURG SUNNY 80 65 59 CALM 30.00S  

 
 
SOUTHEAST OHIO/NORTHEAST KENTUCKY  
 
CITY SKY/WX TMP DP RH WIND PRES REMARKS
 
ATHENS SUNNY 81 64 55 NE7 30.02S  
ASHLAND SUNNY 81 70 69 CALM 30.02S  

 
 
 
CLICK HERE TO GO TO PREVIOUS BULLETINS.

The Nexlab WV Page
The Nexlab OH Page
The Nexlab KY Page
The Nexlab VA Page Main Text Page